SCP
0 0 0 0 0 0 0 0 0 0 0 0 0 0 0 0 0 0 0 0 0 -0
0 0 0 0 0 0 0 0 0 0 0 0 0 0 0 0 0 0 0 -0 0 -0
0 0 0 0 0 0 0 0 0 0 0 0 0 0 0 0 0 0 -0 0 0 0
0 0 0 0 0 0 0 0 0 0 0 0 0 0 0 0 0 0 0 0 0 0
0 0 0 0 0 -0 0 0 -0 0 0 0 0 0 0 0 0 0 0 0 0 -0
0 0 0 0 -0 -0 0 0 -0 -0 0 0 0 0 0 0 0 0 0 0 -0 -0
-0 -0 0 0 0 0 0 -0 0 -0 -0 0 0 0 0 0 0 -0 -0 -0 -0 -0
0 0 0 0 0 -0 0 0 0 -0 -0 -0 0 0 0 0 -0 -0 -0 0 -0 -0
-0 -0 -0 -0 0 -0 0 0 0 -0 -0 0 -0 -0 0 0 0 0 -0 0 -0 0
-0 -0 -0 -0 0 -0 0 0 0 0 -0 -0 -0 -0 -0 -0 0 0 0 0 0 0
-0 -0 -0 -0 -0 -0 0 0 0 0 0 -0 -0 -0 -0 -0 0 0 0 0 0 0
-0 -0 -0 -0 -0 -0 0 0 0 0 -0 0 -0 0 0 0 0 0 -0 0 0 0
-0 -0 -0 -0 -0 -0 0 0 0 0 0 -0 -0 0 -0 0 0 0 0 0 0 0
-0 -0 -0 -0 0 -0 0 0 0 0 0 0 0 0 0 -0 0 0 -0 0 -0 0
Wind_Speed_500mb
38 36 33 28 27 30 27 24 22 20 16 16 17 16 15 13 15 12 11 15 16 20
37 32 28 31 29 23 20 17 17 11 11 10 9 11 11 16 18 16 12 13 15 19
29 26 26 26 23 20 15 11 15 13 10 6 7 10 15 18 17 16 16 15 14 18
26 24 21 17 18 17 14 18 19 15 10 1 5 9 12 12 10 18 19 17 14 17
21 15 15 15 13 19 23 23 18 9 1 5 12 12 11 14 25 23 23 24 20 17
20 14 11 12 14 23 25 24 11 3 4 5 13 16 12 19 19 27 23 19 21 22
16 14 10 15 15 23 26 19 5 4 5 11 15 16 16 15 10 13 27 23 24 23
13 15 14 20 14 34 29 15 9 4 5 7 14 15 15 14 8 11 20 14 18 18
12 13 22 28 29 28 22 14 10 7 3 10 15 18 13 12 11 12 10 10 22 22
16 19 23 27 29 27 21 14 10 8 2 10 17 16 12 9 9 12 11 15 21 28
14 18 29 28 26 26 17 15 11 9 6 10 16 11 8 9 13 15 11 12 13 21
20 30 30 25 27 21 18 16 14 10 8 10 9 6 5 9 12 13 18 17 14 13
22 29 29 22 24 19 17 17 17 15 11 7 2 3 6 10 9 19 23 23 21 27
27 29 27 18 17 14 14 18 18 16 13 8 7 7 9 13 9 14 26 30 32 34
Wind_Direction_500mb
182 184 182 189 200 207 208 229 249 264 257 229 243 250 248 242 238 235 235 244 244 235
171 176 182 183 189 200 226 244 259 222 205 221 236 249 248 241 240 238 239 243 239 229
163 167 178 189 202 213 227 231 179 172 182 193 260 273 260 250 237 235 239 241 246 241
164 164 174 188 211 216 190 165 159 150 147 77 321 295 282 272 243 232 218 222 237 229
164 142 175 180 185 184 166 160 154 147 208 309 323 307 291 263 248 224 218 226 230 214
156 173 177 181 164 161 163 160 150 119 320 313 327 321 307 299 250 227 209 215 223 217
180 199 199 175 172 177 165 151 185 231 255 323 336 337 329 313 265 204 213 228 221 224
185 196 193 166 165 160 155 162 179 192 307 355 356 346 348 6 92 164 189 204 213 202
212 209 179 166 153 160 162 171 184 189 2 7 351 355 10 39 97 132 159 175 169 175
184 168 175 181 177 176 171 188 195 207 302 346 347 358 14 56 118 124 110 125 153 167
174 169 166 161 172 173 184 179 195 229 267 327 343 356 27 86 121 131 126 139 149 152
176 170 169 183 185 184 191 206 217 233 264 315 337 8 58 115 120 129 127 127 135 146
181 176 174 183 192 203 210 220 232 244 257 281 271 102 96 123 112 126 124 121 113 121
177 171 171 183 203 211 229 224 224 228 231 244 178 144 131 128 120 143 137 132 127 125
Wind_Speed_850mb
38 36 33 28 27 30 27 24 22 20 16 16 17 16 15 13 15 12 11 15 16 20
37 32 28 31 29 23 20 17 17 11 11 10 9 11 11 16 18 16 12 13 15 19
29 26 26 26 23 20 15 11 15 13 10 6 7 10 15 18 17 16 16 15 14 18
26 24 21 17 18 17 14 18 19 15 10 1 5 9 12 12 10 18 19 17 14 17
21 15 15 15 13 19 23 23 18 9 1 5 12 12 11 14 25 23 23 24 20 17
20 14 11 12 14 23 25 24 11 3 4 5 13 16 12 19 19 27 23 19 21 22
16 14 10 15 15 23 26 19 5 4 5 11 15 16 16 15 10 13 27 23 24 23
13 15 14 20 14 34 29 15 9 4 5 7 14 15 15 14 8 11 20 14 18 18
12 13 22 28 29 28 22 14 10 7 3 10 15 18 13 12 11 12 10 10 22 22
16 19 23 27 29 27 21 14 10 8 2 10 17 16 12 9 9 12 11 15 21 28
14 18 29 28 26 26 17 15 11 9 6 10 16 11 8 9 13 15 11 12 13 21
20 30 30 25 27 21 18 16 14 10 8 10 9 6 5 9 12 13 18 17 14 13
22 29 29 22 24 19 17 17 17 15 11 7 2 3 6 10 9 19 23 23 21 27
27 29 27 18 17 14 14 18 18 16 13 8 7 7 9 13 9 14 26 30 32 34
Wind_Direction_850mb
182 184 182 189 200 207 208 229 249 264 257 229 243 250 248 242 238 235 235 244 244 235
171 176 182 183 189 200 226 244 259 222 205 221 236 249 248 241 240 238 239 243 239 229
163 167 178 189 202 213 227 231 179 172 182 193 260 273 260 250 237 235 239 241 246 241
164 164 174 188 211 216 190 165 159 150 147 77 321 295 282 272 243 232 218 222 237 229
164 142 175 180 185 184 166 160 154 147 208 309 323 307 291 263 248 224 218 226 230 214
156 173 177 181 164 161 163 160 150 119 320 313 327 321 307 299 250 227 209 215 223 217
180 199 199 175 172 177 165 151 185 231 255 323 336 337 329 313 265 204 213 228 221 224
185 196 193 166 165 160 155 162 179 192 307 355 356 346 348 6 92 164 189 204 213 202
212 209 179 166 153 160 162 171 184 189 2 7 351 355 10 39 97 132 159 175 169 175
184 168 175 181 177 176 171 188 195 207 302 346 347 358 14 56 118 124 110 125 153 167
174 169 166 161 172 173 184 179 195 229 267 327 343 356 27 86 121 131 126 139 149 152
176 170 169 183 185 184 191 206 217 233 264 315 337 8 58 115 120 129 127 127 135 146
181 176 174 183 192 203 210 220 232 244 257 281 271 102 96 123 112 126 124 121 113 121
177 171 171 183 203 211 229 224 224 228 231 244 178 144 131 128 120 143 137 132 127 125